TimeCST,TemperatureF,Dew PointF,Humidity,Sea Level PressureIn,VisibilityMPH,Wind Direction,Wind SpeedMPH,Gust SpeedMPH,PrecipitationIn,Events,Conditions,WindDirDegrees,DateUTC
12:56 AM,21.9,9.0,58,30.15,10.0,West,6.9,-,N/A,,Clear,270,2011-11-16 06:56:00
2:56 AM,25.0,9.0,51,30.16,10.0,West,8.1,-,N/A,,Scattered Clouds,270,2011-11-16 08:56:00
3:56 AM,19.9,8.1,60,30.17,10.0,WNW,6.9,-,N/A,,Clear,290,2011-11-16 09:56:00
4:56 AM,21.0,10.0,63,30.18,10.0,West,6.9,-,N/A,,Scattered Clouds,280,2011-11-16 10:56:00
5:56 AM,21.9,10.0,60,30.19,10.0,WNW,3.5,-,N/A,,Overcast,300,2011-11-16 11:56:00
6:56 AM,18.0,10.0,71,30.23,10.0,West,6.9,-,N/A,,Clear,280,2011-11-16 12:56:00
7:56 AM,19.9,10.0,65,30.27,10.0,WSW,8.1,-,N/A,,Clear,250,2011-11-16 13:56:00
8:56 AM,26.1,12.0,55,30.29,10.0,West,5.8,-,N/A,,Clear,280,2011-11-16 14:56:00
9:56 AM,32.0,12.9,45,30.29,10.0,WNW,10.4,-,N/A,,Clear,290,2011-11-16 15:56:00
10:56 AM,39.0,10.9,32,30.29,10.0,WNW,10.4,-,N/A,,Clear,290,2011-11-16 16:56:00
11:56 AM,41.0,3.9,21,30.28,10.0,NW,12.7,20.7,N/A,,Clear,310,2011-11-16 17:56:00
12:56 PM,42.1,5.0,22,30.26,10.0,WNW,17.3,27.6,N/A,,Clear,300,2011-11-16 18:56:00
1:56 PM,43.0,8.1,24,30.25,10.0,West,18.4,28.8,N/A,,Clear,280,2011-11-16 19:56:00
3:56 PM,41.0,5.0,23,30.27,10.0,NW,12.7,24.2,N/A,,Clear,320,2011-11-16 21:56:00
4:56 PM,37.0,7.0,29,30.29,10.0,NW,15.0,-,N/A,,Partly Cloudy,310,2011-11-16 22:56:00
5:56 PM,34.0,7.0,32,30.31,10.0,NW,9.2,19.6,N/A,,Clear,320,2011-11-16 23:56:00
6:56 PM,28.0,5.0,38,30.35,10.0,WNW,6.9,-,N/A,,Clear,300,2011-11-17 00:56:00
7:56 PM,27.0,5.0,39,30.35,10.0,WNW,6.9,-,N/A,,Clear,300,2011-11-17 01:56:00
9:56 PM,19.0,3.9,52,30.35,10.0,WSW,6.9,-,N/A,,Clear,240,2011-11-17 03:56:00
10:56 PM,19.9,3.9,50,30.33,10.0,WSW,8.1,-,N/A,,Partly Cloudy,240,2011-11-17 04:56:00
11:56 PM,21.0,3.9,48,30.31,10.0,WSW,5.8,-,N/A,,Clear,240,2011-11-17 05:56:00